Weather History for Redding, CA

Change the Weather History Date:

Wednesday, August 28, 2013

  Actual Average Record
Temperature  
Mean Temperature 76 °F -  
Max Temperature 93 °F 94 °F 109 °F (2008)
Min Temperature 58 °F 61 °F 51 °F (1995)
Degree Days  
Heating Degree Days 0    
Cooling Degree Days 11    
Growing Degree Days 24 (Base 50)    
Moisture  
Dew Point 44 °F    
Average Humidity 40    
Maximum Humidity 62    
Minimum Humidity 18    
Precipitation  
Precipitation 0.00 in 0.00 in 0.13 in (2010)
Month to date precipitation T 0.15  
Year to date precipitation 9.30 21.10  
Since 1 July precipitation T 0.24  
Sea Level Pressure  
Sea Level Pressure 29.82 in    
Wind  
Wind Speed 3 mph (SE)    
Max Wind Speed 16 mph    
Max Gust Speed 23 mph    
Visibility 10 miles    
Events      
T = Trace of Precipitation, MM = Missing Value Source: NWS Daily Summary

Daily Weather History Graph

Daily Weather History Graph

Search for Another Location

Airport:

Trip Planner

Search our weather history database for the weather conditions in past years. The results will help you decide how hot, cold, wet, or windy it might be!

Date:

Astronomy

Aug. 28, 2013 Rise Set
Actual Time 6:32 AM PDT 7:46 PM PDT
Civil Twilight 6:04 AM PDT 8:15 PM PDT
Nautical Twilight 5:30 AM PDT 8:48 PM PDT
Astronomical Twilight 4:55 AM PDT 9:24 PM PDT
Moon No Moon Rise 2:30 PM PDT
Length of Visible Light 14h 10m
Length of Day
13h 14m
Last Quarter, 46% of the Moon is Illuminated
Aug 28
Last Quarter
Sep 5
New
Sep 12
First Quarter
Sep 19
Full
Sep 26
Last Quarter

Hourly Weather History & Observations

Time (PDT) Temp. Dew Point Humidity Pressure Visibility Wind Dir Wind Speed Gust Speed Precip Events Conditions
12:53 AM 71.1 °F 45.0 °F 39% 29.76 in 10.0 mi NE 3.5 mph - N/A   Clear
1:53 AM 68.0 °F 43.0 °F 40% 29.77 in 10.0 mi North 3.5 mph - N/A   Clear
2:53 AM 64.9 °F 45.0 °F 48% 29.78 in 10.0 mi Calm Calm - N/A   Clear
3:53 AM 64.0 °F 46.0 °F 52% 29.79 in 10.0 mi North 3.5 mph - N/A   Clear
4:53 AM 63.0 °F 45.0 °F 52% 29.80 in 10.0 mi Calm Calm - N/A   Clear
5:53 AM 60.1 °F 45.0 °F 57% 29.81 in 10.0 mi NNE 3.5 mph - N/A   Clear
6:53 AM 57.9 °F 45.0 °F 62% 29.83 in 10.0 mi Calm Calm - N/A   Clear
7:53 AM 64.0 °F 46.0 °F 52% 29.85 in 10.0 mi Calm Calm - N/A   Clear
8:53 AM 72.0 °F 50.0 °F 46% 29.85 in 10.0 mi Calm Calm - N/A   Clear
9:53 AM 75.0 °F 48.0 °F 38% 29.86 in 10.0 mi Calm Calm - N/A   Clear
10:53 AM 78.1 °F 46.9 °F 33% 29.86 in 10.0 mi Calm Calm - N/A   Clear
11:53 AM 82.9 °F 46.0 °F 27% 29.86 in 10.0 mi Variable 3.5 mph - N/A   Clear
12:53 PM 86.0 °F 46.0 °F 25% 29.85 in 10.0 mi SSE 8.1 mph - N/A   Clear
1:53 PM 88.0 °F 44.1 °F 22% 29.83 in 10.0 mi Variable 4.6 mph 16.1 mph N/A   Clear
2:53 PM 91.0 °F 44.1 °F 20% 29.81 in 10.0 mi South 9.2 mph 17.3 mph N/A   Clear
3:53 PM 91.9 °F 41.0 °F 17% 29.80 in 10.0 mi South 10.4 mph - N/A   Clear
4:53 PM 91.9 °F 42.1 °F 18% 29.79 in 10.0 mi South 12.7 mph - N/A   Clear
5:53 PM 91.9 °F 39.9 °F 16% 29.78 in 10.0 mi South 9.2 mph - N/A   Clear
6:53 PM 90.0 °F 42.1 °F 19% 29.78 in 10.0 mi SSE 9.2 mph - N/A   Clear
7:53 PM 84.9 °F 44.1 °F 24% 29.79 in 10.0 mi South 6.9 mph - N/A   Clear
8:53 PM 82.0 °F 39.0 °F 22% 29.80 in 10.0 mi South 8.1 mph - N/A   Clear
9:53 PM 81.0 °F 39.9 °F 23% 29.82 in 10.0 mi Calm Calm - N/A   Clear
10:53 PM 75.9 °F 41.0 °F 29% 29.83 in 10.0 mi Calm Calm - N/A   Clear
11:53 PM 72.0 °F 42.1 °F 34% 29.83 in 10.0 mi NE 3.5 mph - N/A   Clear